Weather in Verhniy Baskunchak

Russia / Astrakhan Oblast     48°13′32″N   46°43′18″E
temp.,
°C
wind,
m/s
gust,
m/s
humid.,
%
clouds,
%
prec.,
mm/h
press.,
hPa
HPBL,
m
1 august, sun
sun101:00+27s11242 0.0 101111
04:00+27sse33232 0.0 101118
07:00+27sse11260 0.0 101245
10:00+32se22190 0.0 1012688
13:00+35ese34180 0.0 10112554
16:00+36sse33200 0.0 10103019
19:00+36sse33210 0.0 10102975
22:00+32ssw22294 0.0 101024
2 august, mon
mon201:00+31sse223259 0.0 101014
04:00+30ssw223720 0.0 101119
07:00+30wsw22396 0.0 101276
10:00+34ssw222923 0.0 10121096
13:00+38s561419 0.0 10113066
16:00+38s66125 0.0 10103622
19:00+37ssw36133 0.0 10103190
22:00+33se33177 0.0 101026
3 august, tue
tue301:00+30s462024 0.0 101099
04:00+29ssw33226 0.0 101120
07:00+29s35235 0.0 1011106
10:00+36s33155 0.0 1011642
13:00+39ssw56105 0.0 10103810
16:00+40sw6685 0.0 10094151
19:00+39ssw451081 0.0 10092729
22:00+33s33140 0.0 100920
4 august, wed
wed401:00+30ssw45160 0.0 100957
04:00+29sw48185 0.0 1009114
07:00+29ssw47218 0.0 1010161
10:00+35sw4515100 0.0 1010664
13:00+38nw6614100 0.0 10102835
16:00+37wnw5519100 0.1 10101712
19:00+34sse3325100 0.0 1010326
22:00+30nnw812368 0.0 1011457
5 august, thu
thu501:00+27nnw37464 0.3 1012181
04:00+27n5848100 0.3 1013286
07:00+25n6850100 0.0 1013316
10:00+27n5647100 0.1 1015720
13:00+31n5532100 0.0 10142358
16:00+33nnw55240 0.0 10132875
19:00+32n66210 0.0 10132733
22:00+28n6112486 0.0 1014314